Location: Platte
(43.3870°N, 98.8440°W)
Time: 18:44:59
(UTC-06:00)

Daily predictions for brighter satellites

Satellite Brightness Start Highest point End
(mag) Time Altitude Azimuth Time Altitude Azimuth Time Altitude Azimuth
Cosmos 1484 Rocket 4.4 17:28:39 10° E 17:30:38 14° ENE 17:32:37 10° NNE
Cosmos 1633 3.3 17:27:54 10° NNW 17:31:26 58° W 17:34:57 10° S
Okean 1 Rocket 3.8 17:27:12 10° NNW 17:31:28 59° W 17:35:43 10° S
Cosmos 1544 Rocket 4.0 17:31:51 10° N 17:36:04 40° ENE 17:40:16 10° SSE
COSMO-SKYMED 1 4.2 17:35:24 10° NE 17:37:59 15° E 17:40:34 10° SE
Cosmos 1975 Rocket 3.0 17:36:36 10° S 17:40:55 80° E 17:45:15 10° N
Cosmos 2263 Rocket 3.9 17:43:36 10° WSW 17:48:20 27° NW 17:53:08 10° N
PAYLOAD A 4.0 17:46:43 10° SSE 17:51:31 82° WSW 17:56:32 10° NNW
Tiangong 1 3.5 17:54:20 10° SSE 17:55:25 11° SSE 17:56:31 10° SE
Cosmos 1536 Rocket 4.1 17:53:26 10° SSE 17:57:33 38° E 18:01:43 10° NNE
SJ-7 4.4 17:54:48 10° SSE 17:58:59 67° ENE 18:03:13 10° N
GEOS 3 Rocket 4.2 17:55:40 10° ESE 18:00:15 35° NE 18:04:52 10° NNW
BREEZE-M DEB (TANK) 2.0 18:00:38 10° W 18:02:49 47° NNW 18:04:10 19° NE
Okean 1 3.9 17:59:29 10° SSE 18:03:13 36° E 18:06:58 10° NNE
Cosmos 1536 4.5 17:59:40 10° NNW 18:03:28 38° W 18:07:14 10° SSW
YAOGAN 1 2.5 18:01:21 10° SSE 18:05:40 84° ENE 18:10:02 10° NNW
SPOT 3 Rocket 3.6 18:00:55 10° SSE 18:06:06 87° WSW 18:11:20 10° NNW
Cosmos 1812 2.8 18:03:13 10° S 18:07:00 56° E 18:10:48 10° NNE
CZ-4 R/B 4.4 18:05:27 10° SSE 18:09:34 69° ENE 18:13:43 10° N
COSMOS 2487 3.5 18:06:47 10° N 18:09:52 26° ENE 18:12:54 10° ESE
CZ-3A R/B 3.7 18:05:07 10° WSW 18:09:53 65° NNW 18:30:39 14° ENE
USA 234 3.4 18:03:52 11° NE 18:10:08 73° NW 18:16:38 10° WSW
Meteor 1-18 Rocket 4.2 18:05:30 10° S 18:11:05 67° E 18:16:47 10° NNE
ISS -2.5 18:09:48 10° W 18:12:58 44° NNW 18:14:53 20° NE
Cosmos 1844 Rocket 3.0 18:07:45 10° SSW 18:13:19 69° WNW 18:18:57 10° NNE
Cosmos 921 Rocket 4.4 18:11:43 10° SE 18:14:34 18° E 18:14:34 18° E
AQUARIUS 4.5 18:11:05 10° S 18:15:34 71° WSW 18:20:05 10° NNW
BREEZE M DEB (TANK) 3.3 18:14:11 10° WNW 18:17:11 43° NNE 18:21:53 18° E
USA 32 4.2 18:13:48 10° S 18:19:01 75° W 18:24:15 10° N
Cosmos 1346 Rocket 3.3 18:15:29 10° SSE 18:19:02 34° E 18:20:56 22° NE
ASTRO F (AKARI) 4.1 18:17:59 14° NNE 18:20:36 70° ESE 18:23:43 10° S
EP 2 4.1 18:19:24 10° SSW 18:21:59 70° SE 18:22:50 38° NE
SL-8 Rocket 4.5 18:17:50 10° NNW 18:23:55 63° W 18:29:58 10° S
Cosmos 1455 Rocket 3.2 18:21:09 10° N 18:25:34 78° W 18:29:58 10° S
SKYMED 2 3.8 18:22:43 13° NNE 18:26:24 48° E 18:30:36 10° S
NOSS 3-3 (A) 4.0 18:20:26 10° SSW 18:26:32 66° ESE 18:31:29 18° NE
NOSS 3-3 (C) 4.0 18:20:33 10° SSW 18:26:38 65° ESE 18:31:34 18° NE
Cosmos 494 Rocket 4.1 18:21:29 10° NNW 18:26:45 79° WSW 18:31:59 10° SSE
IDEFIX/ARIANE 42P 3.1 18:21:43 10° S 18:26:51 61° W 18:32:00 10° NNW
Cosmos 1844 4.0 18:24:46 10° SW 18:30:18 67° WNW 18:35:52 10° NNE
Okean 1-7 Rocket 4.3 18:27:13 10° SSE 18:31:14 32° E 18:32:13 29° ENE
Cosmos 2297 4.2 18:27:28 10° S 18:32:38 38° ESE 18:35:04 26° ENE
ATLAS 2AS CENTAUR R/B 3.4 18:26:19 10° NW 18:34:20 67° WSW 18:41:46 10° SSE
BREEZE-M DEB (TANK) 4.4 18:27:07 10° W 18:34:23 39° NNW 18:35:51 27° NE
Abrixas 3.1 18:32:24 10° WNW 18:35:12 38° NNE 18:35:12 38° NNE
Cosmos 2366 rocket 4.3 18:28:54 10° NNW 18:35:14 71° W 18:41:30 10° S
CZ-4 R/B 3.7 18:35:35 10° SSW 18:39:13 28° W 18:42:49 10° NW
Thor Agena Rocket 4.5 18:36:43 10° N 18:41:43 49° WNW 18:46:45 10° SW
MSX 4.1 18:36:01 10° S 18:41:45 69° WSW 18:47:30 10° NNW
SL-24 DEB 4.3 18:37:49 10° N 18:42:36 83° W 18:47:17 10° S
Cosmos 1934 Rocket 4.4 18:38:57 10° N 18:44:37 36° ENE 18:50:19 10° SE
Cosmos 1809 Rocket 4.3 18:40:01 10° N 18:46:13 82° E 18:52:20 10° S
Cosmos 1975 3.2 18:42:32 10° NNW 18:46:36 66° W 18:50:36 10° S
Cosmos 2278 Rocket 2.2 18:41:04 10° SSW 18:46:43 81° WNW 18:51:13 17° NNE
Cosmos 1238 Rocket 4.0 18:44:32 10° SW 18:47:10 29° WNW 18:49:54 10° NNW
CZ-2C R/B 4.1 18:45:10 10° SSW 18:49:42 35° W 18:54:23 10° NNW
Timation 2 Rocket 4.1 18:48:05 10° NNW 18:54:54 73° ENE 19:01:48 10° SSE
Genesis I 3.2 18:52:54 10° NW 18:56:52 82° SW 18:58:26 35° SSE
Meteor 1-19 Rocket 4.3 18:51:41 10° S 18:57:19 58° E 19:00:54 23° NNE
Cosmos 2239 Rocket 4.4 18:54:19 10° N 19:00:30 61° E 19:06:35 10° SSE
Cosmos 1484 Rocket 3.8 19:01:10 10° S 19:04:45 44° W 19:08:21 10° NNW
TIMED 4.3 19:02:17 10° SSW 19:06:39 75° ESE 19:06:54 72° ENE
NOAA 12 3.9 19:01:42 10° SSE 19:06:58 78° ENE 19:12:15 10° N
SL-8 R/B 3.6 19:03:20 10° WSW 19:08:07 80° NNW 19:08:49 64° NE
DMSP B5D1-3 4.5 19:05:50 19° NNE 19:09:40 85° WNW 19:14:47 10° SSW
Cosmos 1821 Rocket 3.8 19:04:01 10° N 19:10:08 69° E 19:16:11 10° SSE
Cosmos 2082 Rocket 2.1 19:05:27 10° NNW 19:11:08 82° ENE 19:15:49 16° SSE
Cosmos 1833 Rocket 2.5 19:06:58 10° NNW 19:12:38 73° ENE 19:14:56 37° SE
COSMO-SKYMED 1 3.4 19:11:18 17° N 19:14:26 50° WNW 19:18:37 10° SSW
Meteor 1-13 Rocket 4.2 19:09:04 10° S 19:14:44 84° W 19:19:43 15° N
METEOR-M 4.0 19:10:01 10° SSE 19:15:21 78° ENE 19:20:43 10° N
Meteor 1-28 Rocket 3.7 19:20:30 58° SW 19:20:30 58° SW 19:23:44 10° SSW
Meteor 1-23 Rocket 4.4 19:20:57 10° S 19:25:42 56° SE 19:25:42 56° SE
CZ-3B DEB 3.2 19:21:59 10° W 19:26:41 54° NNW 19:30:57 33° NE
BREEZE-M R/B 3.7 19:21:01 10° WSW 19:29:58 69° NNW 19:30:32 64° NNE
Tiangong 1 4.0 19:28:13 10° SW 19:28:54 15° SW 19:28:54 15° SW
Timation 1 Rocket 4.3 19:31:49 10° SSW 19:37:46 82° WNW 19:38:38 66° N
GEOS 3 Rocket 4.4 19:34:43 19° S 19:38:10 47° WSW 19:43:08 10° NW
Meteor 2-4 Rocket 3.7 19:35:53 10° S 19:40:40 71° SSW 19:40:40 71° SSW
ISS 0.1 19:47:33 10° NW 19:47:34 10° NW 19:47:34 10° NW
USA 234 4.3 19:51:13 31° N 19:52:33 33° NNW 19:58:14 10° WNW
NOSS 3-4 (A) 3.8 20:03:06 10° NW 20:09:29 75° WNW 20:09:29 75° WNW
NOSS 3-4 (C) 3.8 20:03:12 10° NW 20:09:33 75° NW 20:09:33 75° NW
FALCON 9 R/B 3.6 20:00:48 10° WSW 20:15:25 45° SSW 20:15:38 45° S
